Regional Weather Roundup
Issued by NWS

Home | Current Version | Previous Version | Text Only | Print | Product List | Glossary Off
Versions: 1 2 3 4 5 6 7 8 9 10 11 12 13 14 15 16 17 18 19 20 21 22 23 24 25 26 27 28 29 30 31 32 33 34 35 36 37 38 39 40 41 42 43 44 45 46 47 48 49 50

000
ASUS43 KOAX 010710
RWRNE

WEATHER ROUNDUP FOR NEBRASKA
NATIONAL WEATHER SERVICE OMAHA NE
200 AM CDT SUN MAY 01 2016

NOTES: SATELLITE DATA IS BEING USED TO AUGMENT CLOUD COVER ABOVE
       12000 FEET.
       "FAIR" INDICATES FEW OR NO CLOUDS BELOW 12,000 FEET WITH NO
       SIGNIFICANT WEATHER AND/OR OBSTRUCTIONS TO VISIBILITY.

  * THESE STATIONS DO NOT REPORT WEATHER SUCH AS RAIN...SNOW OR FOG.

NEZ001>004-019>022-054>056-010800-
NEBRASKA PANHANDLE

CITY           SKY/WX    TMP DP  RH WIND       PRES   REMARKS
SCOTTSBLUFF    LGT RAIN  37  35  92 NW7       30.22R WCI  32
ALLIANCE       MIX PCPN  33  32  96 N13       30.18R WCI  24
CHADRON        CLOUDY    41  36  82 NE8       30.21S
KIMBALL        LGT SNOW  33  33  99 N15       30.19R WCI  23
SIDNEY         LGT SNOW  34  32  92 N21       30.15R FOG     WCI  22
$$

NEZ057>060-069>072-079>082-010800-
SOUTHWEST NEBRASKA

CITY           SKY/WX    TMP DP  RH WIND       PRES   REMARKS
NORTH PLATTE   LGT SNOW  33  32  96 N15       30.05R FOG     WCI  23
IMPERIAL       LGT SNOW  34  32  92 N18       30.08R FOG     WCI  23
LEXINGTON      LGT RAIN  40  38  89 N17       29.99R WCI  32
MCCOOK         CLOUDY    37  34  89 N20       30.00S WCI  27
OGALLALA       LGT RAIN  36  33  90 N21       30.11R WCI  24
$$

NEZ005>010-023>029-035>040-094-010800-
NORTH CENTRAL NEBRASKA

CITY           SKY/WX    TMP DP  RH WIND       PRES   REMARKS
VALENTINE      LGT RAIN  39  37  92 N7        30.15S WCI  34
AINSWORTH      LGT RAIN  39  38  96 NE16G23   30.11S WCI  31
BROKEN BOW     LGT RAIN  39  37  92 N13       30.01R WCI  31
O`NEILL        DRIZZLE   42  40  93 NE22G28   30.06R
ORD            LGT RAIN  41  38  89 NE17G26   29.99R
THEDFORD       CLOUDY    37  36  96 N15G21    30.09R WCI  27
$$

NEZ041-046>049-061>064-073>077-083>087-010800-
SOUTH CENTRAL NEBRASKA

CITY           SKY/WX    TMP DP  RH WIND       PRES   REMARKS
GRAND ISLAND   LGT RAIN  43  41  93 N16       29.94R FOG
AURORA         CLOUDY    45  44  99 NE17G23   29.91S FOG
HASTINGS       CLOUDY    43  42  97 N17G24    29.91R
HEBRON         CLOUDY    47  45  92 W6        29.88F
HOLDREGE       DRIZZLE   42  41  95 N18       29.95R
KEARNEY *      CLOUDY    43  39  87 N17       29.95R
YORK           CLOUDY    46  45  93 NE16G24   29.90R FOG
$$

NEZ011>018-030>034-042>045-010800-
NORTHEAST NEBRASKA

CITY           SKY/WX    TMP DP  RH WIND       PRES   REMARKS
NORFOLK        LGT RAIN  42  39  89 NE16      29.98R
ALBION         LGT RAIN  41  40  95 NE18      29.98R
BLAIR          DRIZZLE   46  44  95 NE14      29.92R
COLUMBUS *     CLOUDY    45  36  70 NE16      29.95R
FREMONT        DRIZZLE   45  44  98 NE13G18   29.93R
TEKAMAH        CLOUDY    45  43  93 NE16      29.95S
WAYNE          LGT RAIN  42  41  95 NE15      30.00S
$$

NEZ050>053-065>068-078-088>093-010800-
SOUTHEAST NEBRASKA

CITY           SKY/WX    TMP DP  RH WIND       PRES   REMARKS
LINCOLN        CLOUDY    49  48  97 NE12      29.89R FOG
OMAHA EPPLEY   DRIZZLE   47  45  93 NE15      29.92R
BEATRICE       CLOUDY    48  46  94 CALM      29.88S
FALLS CITY     CLOUDY    53  48  83 W6        29.87S
NEBRASKA CITY  CLOUDY    51  51 100 CALM      29.88S FOG
PLATTSMOUTH    CLOUDY    48  48  99 E10       29.89S
$$

NEZ044-045-051>053-067-010800-
OMAHA AREA

CITY           SKY/WX    TMP DP  RH WIND       PRES   REMARKS
OMAHA EPPLEY   DRIZZLE   47  45  93 NE15      29.92R
BLAIR          DRIZZLE   46  44  95 NE14      29.92R
FREMONT        DRIZZLE   45  44  98 NE13G18   29.93R
MILLARD        DRIZZLE   48  46  95 E6        29.91R
OFFUTT AFB     CLOUDY    48  48 100 NE9       29.89S
PLATTSMOUTH    CLOUDY    48  48  99 E10       29.89S
WAHOO          CLOUDY    46  45  95 NE20      29.90S
$$




USA.gov is the U.S. government's official web portal to all federal, state and local government web resources and services.